Regional Weather Roundup
Issued by NWS

Home | Current Version | Previous Version | Text Only | Print | Product List | Glossary On
Versions: 1 2 3 4 5 6 7 8 9 10 11 12 13 14 15 16 17 18 19 20 21 22 23 24 25 26 27 28 29 30 31 32 33 34 35 36 37 38 39 40 41 42 43 44 45 46 47 48 49 50
000
ASUS43 KDMX 310407
RWRIA

WEATHER ROUNDUP FOR IOWA
NATIONAL WEATHER SERVICE DES MOINES IA
1100 PM CDT THU JUL 30 2015

NOTE: "FAIR" INDICATES FEW OR NO CLOUDS BELOW 12,000 FEET WITH NO
SIGNIFICANT WEATHER AND/OR OBSTRUCTIONS TO VISIBILITY.

* - THESE STATIONS ARE NOT NWS STATIONS...THUS NOT UNDER NWS
QUALITY CONTROL.  THEY ALSO DO NOT REPORT WEATHER SUCH
AS PRECIPITATION OR FOG.

IAZ001>003-012>014-020>022-031>034-043>046-310500-
   NORTHWEST IOWA

CITY           SKY/WX    TMP DP  RH WIND       PRES   REMARKS
CARROLL *      CLEAR     70  66  88 W5        30.12S
CHEROKEE *     CLEAR     68  68 100 CALM      30.13R
DENISON *      CLEAR     68  66  94 CALM      30.12R
LE MARS *      CLEAR     70  68  94 S5        30.13S
ORANGE CITY *  CLEAR     72  63  73 CALM      30.12F
SHELDON *      CLEAR     68  64  88 SW5       30.10F
SIOUX CITY     CLEAR     75  68  78 S3        30.12R
SPENCER          N/A     69  65  86 SW7       30.11S
STORM LAKE *   CLEAR     70  66  88 W7        30.14S
$$

IAZ055>058-069>071-079>083-090>094-310500-
   SOUTHWEST IOWA

CITY           SKY/WX    TMP DP  RH WIND       PRES   REMARKS
ATLANTIC *     CLEAR     68  68 100 CALM      30.14R
AUDUBON *      CLEAR     66  63  88 CALM      30.15S
CLARINDA *     CLEAR     70  70 100 CALM      30.16R
COUNCIL BLFS * CLEAR     75  64  69 SW3       30.15R
CRESTON *      CLEAR     72  66  83 SW5       30.16S
HARLAN  *      CLEAR     68  68 100 CALM      30.17R
LAMONI         CLEAR     73  66  78 SW6       30.14S
RED OAK *      CLEAR     70  68  94 CALM      30.14R
SHENANDOAH *     N/A     72  68  88 W5        30.15R
$$

IAZ047>049-059>061-072>074-084-310500-
   CENTRAL IOWA

CITY           SKY/WX    TMP DP  RH WIND       PRES   REMARKS
AMES           CLEAR     69  65  86 W7        30.10R
ANKENY *       CLEAR     68  66  94 CALM      30.11S
CHARITON *     CLEAR     72  66  83 SW6       30.13S
DES MOINES     CLEAR     75  65  70 SW6       30.11R
GRINNELL*      CLEAR     68  63  83 SW5       30.11S
KNOXVILLE *    CLEAR     72  66  83 SW6       30.10S
MARSHALLTOWN   CLEAR     70  66  87 W5        30.09R
PELLA *        CLEAR     73  68  83 W3        30.12R
PERRY *          N/A     70  66  88 SW7       30.11S
$$

IAZ004>006-015-016-023>025-035-036-310500-
   NORTH CENTRAL IOWA

CITY           SKY/WX    TMP DP  RH WIND       PRES   REMARKS
ALGONA *       CLEAR     70  66  88 W7        30.11R
CLARION *      CLEAR     68  64  88 SW5       30.10S
ESTHERVILLE    CLEAR     67  64  90 SW7       30.10R
FORT DODGE *   CLEAR     68  64  88 CALM      30.12R
MASON CITY     CLEAR     72  64  76 W5        30.10R
FOREST CITY *  CLEAR     66  64  94 CALM      30.09S
IOWA FALLS *     N/A     68  64  88 SW7       30.11R
$$

IAZ007>011-017>019-026>030-037>042-050>054-066-310500-
   NORTHEAST IOWA

CITY           SKY/WX    TMP DP  RH WIND       PRES   REMARKS
CEDAR RAPIDS   CLEAR     68  68 100 SW6       30.08S
CHARLES CITY * CLEAR     68  66  94 SW3       30.08S
CLINTON *      CLEAR     66  63  88 W7        30.09S
DECORAH *      CLEAR     66  61  82 CALM      30.06S
DUBUQUE        CLEAR     67  61  81 CALM      30.08R
MONTICELLO *   CLEAR     64  63  94 CALM      30.07S
OELWEIN *        N/A     68  64  88 SW5       30.09S
WATERLOO       CLEAR     70  66  87 CALM      30.07S
$$

IAZ064-065-067-068-078-310500-
   EAST CENTRAL IOWA

CITY           SKY/WX    TMP DP  RH WIND       PRES   REMARKS
DAVENPORT      CLEAR     67  65  93 W3        30.08S
IOWA CITY      CLEAR     72  67  84 W5        30.09S
MT. PLEASANT * CLEAR     72  61  68 W5        30.10S
MUSCATINE *    CLEAR     73  66  78 CALM      30.08S
QUAD CITIES    CLEAR     71  65  81 SW3       30.07R
$$

IAZ062-063-075>077-085>089-095>099-310500-
   SOUTHEAST IOWA

CITY           SKY/WX    TMP DP  RH WIND       PRES   REMARKS
BURLINGTON     CLEAR     72  66  81 W3        30.09S
FAIRFIELD *    CLEAR     70  64  83 SW6       30.10F
FORT MADISON * CLEAR     72  66  83 CALM      30.11S
KEOKUK *       CLEAR     73  68  83 W6        30.10S
OSKALOOSA *      N/A     68  64  88 W5        30.11S
CENTERVILLE *  CLEAR     68  66  94 SW6       30.14S
OTTUMWA        CLEAR     68  65  90 W6        30.09S
WASHINGTON *   CLEAR     68  66  94 W5        30.10F
$$

ABBREVIATIONS USED IN REMARKS
   TC - TEMPERATURES IN CELSIUS
  WCI - WIND CHILL INDEX
   HX - HEAT INDEX
  VSB - VISIBILITY
$$



USA.gov is the U.S. government's official web portal to all federal, state and local government web resources and services.